Weather History for LKMT - December, 2012

Change the Weather History Date:

Thursday, December 13, 2012

  Actual Average (EPKT) Record (EPKT)
Temperature  
Mean Temperature 13 °F -  
Max Temperature 25 °F 35 °F 55 °F (2000)
Min Temperature 1 °F 24 °F -4 °F (2001)
Degree Days  
Heating Degree Days 52    
Moisture  
Dew Point 11 °F    
Average Humidity 88    
Maximum Humidity 93    
Minimum Humidity 73    
Precipitation  
Precipitation 0.00 in 0.04 in - ()
Sea Level Pressure  
Sea Level Pressure 30.10 in    
Wind  
Wind Speed 5 mph ()    
Max Wind Speed 11 mph    
Max Gust Speed -    
Visibility 4.4 miles    
Events Snow    
Averages and records for this station are not official NWS values.
T = Trace of Precipitation, MM = Missing Value Source: Averaged Metar Reports

Daily Weather History Graph

Daily Weather History Graph

Search for Another Location

Airport or City:

Trip Planner

Search our weather history database for the weather conditions in past years. The results will help you decide how hot, cold, wet, or windy it might be!

Date:

Astronomy

Dec. 13, 2012 Rise Set
Actual Time 7:36 AM CET 3:47 PM CET
Civil Twilight 6:58 AM CET 4:25 PM CET
Nautical Twilight 6:17 AM CET 5:06 PM CET
Astronomical Twilight 5:38 AM CET 5:45 PM CET
Moon 7:24 AM CET (12/13) 4:11 PM CET (12/13)
Length of Visible Light 9h 26m
Length of Day
8h 10m
New Moon, 0% of the Moon is Illuminated
Dec 13
New Moon
Dec 20
First Quarter
Dec 28
Full
Jan 5
Last Quarter
Jan 11
New

Hourly Weather History & Observations

Time (CET) Temp. Windchill Dew Point Humidity Pressure Visibility Wind Dir Wind Speed Gust Speed Precip Events Conditions
12:00 AM 15.8 °F 5.1 °F 12.2 °F 86% 30.12 in 6.2 mi SSW 8.1 mph - N/A   Partly Cloudy
12:30 AM 12.2 °F 4.3 °F 10.4 °F 92% 30.12 in 5.0 mi SW 4.6 mph - N/A   Unknown
1:00 AM 8 °F - 5 °F 81% 30.22 in 4 mi SW 6.7 mph - -   Mist
1:00 AM 8.6 °F 0.1 °F 6.8 °F 92% 30.09 in 4.3 mi SW 4.6 mph - N/A   Unknown
1:30 AM 8.6 °F -2.6 °F 5.0 °F 85% 30.09 in 4.3 mi WSW 6.9 mph - N/A   Unknown
2:00 AM 8.6 °F 2.0 °F 6.8 °F 92% 30.12 in 3.7 mi WSW 3.5 mph - N/A   Unknown
2:30 AM 5.0 °F -4.1 °F 3.2 °F 92% 30.12 in 3.1 mi WSW 4.6 mph - N/A   Mist
3:00 AM 6.8 °F -4.8 °F 3.2 °F 85% 30.12 in 2.8 mi SW 6.9 mph - N/A   Mist
3:30 AM 5.0 °F -5.6 °F 1.4 °F 85% 30.09 in 3.1 mi SW 5.8 mph - N/A   Mostly Cloudy
4:00 AM 3.2 °F -7.8 °F 1.4 °F 92% 30.09 in 4.3 mi WSW 5.8 mph - N/A   Mostly Cloudy
4:30 AM 5.0 °F -2.1 °F 1.4 °F 85% 30.09 in 3.7 mi SW 3.5 mph - N/A   Scattered Clouds
5:00 AM 5.0 °F - 1.4 °F 85% 30.09 in 3.7 mi Variable 2.3 mph - N/A   Scattered Clouds
5:30 AM 6.8 °F -3.5 °F 5.0 °F 92% 30.09 in 5.0 mi SW 5.8 mph - N/A   Mostly Cloudy
6:00 AM 5.0 °F -4.1 °F 1.4 °F 85% 30.09 in 5.0 mi WSW 4.6 mph - N/A   Mostly Cloudy
6:30 AM 5.0 °F -6.9 °F 1.4 °F 85% 30.09 in 4.3 mi SW 6.9 mph - N/A Snow Light Snow
7:00 AM 9 °F - 6 °F 79% 30.20 in 4 mi SSW 11.2 mph - - Snow Light Snow
7:00 AM 8.6 °F -5.5 °F 6.8 °F 92% 30.09 in 4.3 mi SSW 10.4 mph - N/A   Partly Cloudy
7:30 AM 6.8 °F -5.9 °F 5.0 °F 92% 30.09 in 3.7 mi WSW 8.1 mph - N/A   Partly Cloudy
8:00 AM 10.4 °F 0.8 °F 8.6 °F 92% 30.09 in 3.7 mi SSW 5.8 mph - N/A   Partly Cloudy
8:30 AM 12.2 °F - 10.4 °F 92% 30.09 in 4.3 mi Calm Calm - N/A   Partly Cloudy
9:00 AM 14.0 °F 6.5 °F 10.4 °F 86% 30.12 in 4.3 mi SW 4.6 mph - N/A   Scattered Clouds
9:30 AM 12.2 °F 4.3 °F 8.6 °F 85% 30.12 in 4.3 mi WSW 4.6 mph - N/A   Scattered Clouds
10:00 AM 14.0 °F 6.5 °F 12.2 °F 93% 30.12 in 5.0 mi West 4.6 mph - N/A   Partly Cloudy
10:30 AM 14.0 °F - 12.2 °F 93% 30.12 in 5.6 mi SW 2.3 mph - N/A   Scattered Clouds
11:00 AM 17.6 °F 12.3 °F 14.0 °F 86% 30.12 in 5.6 mi WSW 3.5 mph - N/A   Partly Cloudy
11:30 AM 19.4 °F - 15.8 °F 86% 30.12 in 5.0 mi Variable 1.2 mph - N/A   Unknown
12:00 PM 21.2 °F - 19.4 °F 93% 30.09 in 5.6 mi Calm Calm - N/A   Scattered Clouds
12:30 PM 21.2 °F 11.7 °F 17.6 °F 86% 30.09 in 6.2 mi SW 8.1 mph - N/A   Scattered Clouds
1:00 PM 23 °F - 18 °F 73% 30.17 in 7 mi WSW 8.9 mph - -   Mostly Cloudy
1:00 PM 23.0 °F 13.9 °F 17.6 °F 80% 30.09 in 6.2 mi WSW 8.1 mph - N/A   Overcast
1:30 PM 24.8 °F 16.1 °F 19.4 °F 80% 30.09 in 6.2 mi WSW 8.1 mph - N/A   Mostly Cloudy
2:00 PM 24.8 °F 16.1 °F 19.4 °F 80% 30.09 in 6.2 mi SW 8.1 mph - N/A   Mostly Cloudy
2:30 PM 24.8 °F 17.9 °F 19.4 °F 80% 30.09 in 6.2 mi SW 5.8 mph - N/A   Scattered Clouds
3:00 PM 19.4 °F 9.5 °F 15.8 °F 86% 30.09 in 6.2 mi WSW 8.1 mph - N/A   Partly Cloudy
3:30 PM 19.4 °F 14.3 °F 17.6 °F 93% 30.09 in 6.2 mi WSW 3.5 mph - N/A   Partly Cloudy
4:00 PM 21.2 °F - 17.6 °F 86% 30.09 in - Variable 1.2 mph - N/A   Clear
4:30 PM 19.4 °F - 17.6 °F 93% 30.09 in - East 2.3 mph - N/A   Clear
5:00 PM 19.4 °F - 17.6 °F 93% 30.06 in - SSE 2.3 mph - N/A   Clear
5:30 PM 19.4 °F - 15.8 °F 86% 30.06 in 5.6 mi Variable 2.3 mph - N/A   Unknown
6:00 PM 14.0 °F - 12.2 °F 93% 30.09 in 3.7 mi WSW 2.3 mph - N/A   Unknown
6:30 PM 15.8 °F - 14.0 °F 93% 30.09 in 3.7 mi Variable 2.3 mph - N/A   Unknown
7:00 PM 15 °F - 14 °F 92% 30.17 in 4 mi 2.2 mph - -   Mist
7:00 PM 15.8 °F - 14.0 °F 93% 30.09 in 3.7 mi Variable 2.3 mph - N/A   Unknown
7:30 PM 14.0 °F 8.2 °F 12.2 °F 93% 30.06 in 3.7 mi South 3.5 mph - N/A   Unknown
8:00 PM 14.0 °F - 12.2 °F 93% 30.06 in 3.7 mi Variable 2.3 mph - N/A   Unknown
8:30 PM 14.0 °F 5.1 °F 12.2 °F 93% 30.06 in 3.1 mi SSW 5.8 mph - N/A   Mist
9:00 PM 14.0 °F 3.9 °F 10.4 °F 86% 30.06 in 2.5 mi SSW 6.9 mph - N/A   Mist
9:30 PM 15.8 °F 7.2 °F 12.2 °F 86% 30.06 in 2.5 mi SSW 5.8 mph - N/A   Mist
10:00 PM 15.8 °F 7.2 °F 12.2 °F 86% 30.06 in 2.5 mi SSW 5.8 mph - N/A   Mist
10:30 PM 14.0 °F 8.2 °F 10.4 °F 86% 30.06 in 2.5 mi South 3.5 mph - N/A   Mist
11:00 PM 17.6 °F 12.3 °F 12.2 °F 79% 30.06 in 2.5 mi SSW 3.5 mph - N/A   Unknown
11:30 PM 17.6 °F 10.7 °F 12.2 °F 79% 30.06 in 2.5 mi South 4.6 mph - N/A   Mist